Regional Weather Roundup
Issued by NWS

Home | Current Version | Previous Version | Text Only | Print | Product List | Glossary On
Versions: 1 2 3 4 5 6 7 8 9 10 11 12 13 14 15 16 17 18 19 20 21 22 23 24 25 26 27 28 29 30 31 32 33 34 35 36 37 38 39 40 41 42 43 44 45 46 47 48 49 50
000
ASUS45 KPSR 040610
RWRAZ

ARIZONA HOURLY REGIONAL WEATHER ROUNDUP
NATIONAL WEATHER SERVICE PHOENIX AZ
1100 PM MST THU SEP 03 2015

NOTE: FAIR INDICATES FEW OR NO CLOUDS BELOW 12,000 FEET WITH NO
SIGNIFICANT WEATHER AND/OR OBSTRUCTIONS TO VISIBILITY.

AZZ001>003-036-040700-
NORTHWEST ARIZONA

CITY           SKY/WX    TMP DP  RH WIND       PRES   REMARKS
BULLHEAD CITY  CLEAR     93  32  11 S22G32    29.70R
KINGMAN        CLEAR     76  55  48 SE20      29.92R
6HR MIN TEMP:  76; 6HR MAX TEMP:  91;

$$

AZZ004>008-015-016-018-040700-
NORTH CENTRAL ARIZONA

CITY           SKY/WX    TMP DP  RH WIND       PRES   REMARKS
GRAND CANYON   PTCLDY    61  41  47 S7        30.15S
6HR MIN TEMP:  61; 6HR MAX TEMP:  76;

WILLIAMS       MOCLDY    61  52  72 SE13      30.22R
PRESCOTT       CLEAR     63  59  87 SE7       30.07F
6HR MIN TEMP:  63; 6HR MAX TEMP:  81;

FLAGSTAFF      PTCLDY    57  55  93 SW12      30.20F
6HR MIN TEMP:  57; 6HR MAX TEMP:  72;

PAYSON         PTCLDY    64  57  77 CALM      30.12S
PAGE           CLEAR     75  52  44 S20G32    29.93R
6HR MIN TEMP:  75; 6HR MAX TEMP:  91;

$$

AZZ009>014-017-040700-
NORTHEAST ARIZONA

CITY           SKY/WX    TMP DP  RH WIND       PRES   REMARKS
WINSLOW        PTCLDY    63  59  87 SE7       30.08S
6HR MIN TEMP:  63; 6HR MAX TEMP:  70; 6HR PCP:  0.48;

SAINT JOHNS    MOCLDY    60  56  86 S7        30.13F
6HR MIN TEMP:  59; 6HR MAX TEMP:  67; 6HR PCP:  0.10;

WINDOW ROCK    CLOUDY    62  46  55 W5        30.19S
6HR MIN TEMP:  62; 6HR MAX TEMP:  76;

SHOW LOW       MOCLDY    59  52  77 S7        30.19F
$$

AZZ023-040700-
GREATER PHOENIX AREA

CITY           SKY/WX    TMP DP  RH WIND       PRES   REMARKS
PHOENIX        MOCLDY    78  65  63 E7        29.84S
6HR MIN TEMP:  77; 6HR MAX TEMP:  95; 6HR PCP:  0.02;

BUCKEYE        PTCLDY    77  66  69 NE9       29.83S
LUKE AFB       PTCLDY    80  64  57 E10       29.84S
6HR MIN TEMP:  80; 6HR MAX TEMP:  98;

DEER VALLEY    PTCLDY    78  61  55 SE3       29.86S
6HR MIN TEMP:  77; 6HR MAX TEMP:  96; 6HR PCP: TRACE;

SCOTTSDALE     PTCLDY    79  61  53 SE7       29.88F
6HR MIN TEMP:  78; 6HR MAX TEMP:  95;

MESA-GATEWAY   MOCLDY    75  63  64 CALM      29.88F
$$

AZZ027-028-040700-
SOUTHWEST MARICOPA COUNTY AND PINAL COUNTY

CITY           SKY/WX    TMP DP  RH WIND       PRES   REMARKS
CASA GRANDE    PTCLDY    73  64  73 E5        29.85F
6HR MIN TEMP:  72; 6HR MAX TEMP:  75;

GILA BEND      FAIR      80  60  50 N8        29.78F
6HR MIN TEMP:  80; 6HR MAX TEMP:  85; 6HR PCP: TRACE;

$$

AZZ503-504-507>509-040700-
SOUTHEAST ARIZONA

CITY           SKY/WX    TMP DP  RH WIND       PRES   REMARKS
TUCSON         PTCLDY    70  65  84 E7        29.96F
6HR MIN TEMP:  69; 6HR MAX TEMP:  71; 6HR PCP:  0.07;

DAVIS-MONTHAN  PTCLDY    70  65  84 E8        29.95F
6HR MIN TEMP:  69; 6HR MAX TEMP:  71; 6HR PCP:  0.06;

NOGALES        PTCLDY    63  61  93 NE5       30.03F
6HR MIN TEMP:  63; 6HR MAX TEMP:  67; 6HR PCP:  0.05;

SIERRA VISTA   MOCLDY    64  58  82 S7        30.08F
6HR MIN TEMP:  62; 6HR MAX TEMP:  65; 6HR PCP:  0.02;

DOUGLAS        CLOUDY    62  60  93 E6        30.06F
6HR MIN TEMP:  62; 6HR MAX TEMP:  72; 6HR PCP: TRACE;

SAFFORD        CLOUDY    73  59  61 SE9       29.96F
6HR MIN TEMP:  73; 6HR MAX TEMP:  83; 6HR PCP: TRACE;

$$

AZZ020-021-025-026-031-040700-
SOUTHWEST ARIZONA

CITY           SKY/WX    TMP DP  RH WIND       PRES   REMARKS
YUMA           PTCLDY    88  66  48 S24G32    29.72F
6HR MIN TEMP:  88; 6HR MAX TEMP: 105;

$$

CAZ031-033-041-043-047-048-061-040700-
SOUTHERN CALIFORNIA

CITY           SKY/WX    TMP DP  RH WIND       PRES   REMARKS
DOWNTOWN L.A.  CLEAR     68  56  65 CALM      29.86S
6HR MIN TEMP:  67; 6HR MAX TEMP:  75;

L.A. AIRPORT   PTCLDY    67  59  75 S5        29.87R
6HR MIN TEMP:  67; 6HR MAX TEMP:  72;

SAN DIEGO      MOCLDY    70  58  65 W3        29.89S
6HR MIN TEMP:  70; 6HR MAX TEMP:  75;

BURBANK        CLOUDY    67  56  67 SE3       29.87R
6HR MIN TEMP:  67; 6HR MAX TEMP:  76;

ONTARIO        CLEAR     65  57  75 W8        29.88S
6HR MIN TEMP:  65; 6HR MAX TEMP:  81;

RIVERSIDE      CLEAR     66  57  72 W3        29.88R
6HR MIN TEMP:  66; 6HR MAX TEMP:  83;

PALM SPRINGS   CLEAR     84  47  27 NW14      29.73S
6HR MIN TEMP:  84; 6HR MAX TEMP:  99;

EL CENTRO NAS  CLEAR     87  71  58 E8        29.71F
6HR MIN TEMP:  87; 6HR MAX TEMP: 104;

IMPERIAL       CLEAR     90  74  59 SE14      29.69F
6HR MIN TEMP:  90; 6HR MAX TEMP: 105;

BLYTHE         PTCLDY    89  65  44 S25       29.74R HAZE
6HR MIN TEMP:  88; 6HR MAX TEMP: 105;

NEEDLES        CLEAR     91  54  28 S20G26    29.73R
6HR MIN TEMP:  91; 6HR MAX TEMP: 103;

$$

NVZ020-UTZ003-040700-
SOUTHERN NEVADA-UTAH

CITY           SKY/WX    TMP DP  RH WIND       PRES   REMARKS
LAS VEGAS      CLEAR     88  27  11 S12       29.71S
6HR MIN TEMP:  88; 6HR MAX TEMP:  98;

SALT LAKE CITY PTCLDY    77  35  21 S13       29.78R
6HR MIN TEMP:  77; 6HR MAX TEMP:  89;

$$

NMZ009-TXZ055-040700-
NEW MEXICO-WEST TEXAS

CITY           SKY/WX    TMP DP  RH WIND       PRES   REMARKS
ALBUQUERQUE    CLOUDY    75  48  38 S8        30.10S
6HR MIN TEMP:  75; 6HR MAX TEMP:  86;

EL PASO        CLOUDY    82  53  36 W8        29.99F
6HR MIN TEMP:  82; 6HR MAX TEMP:  87;

$$


........................KEY........................
SKY/WX - SKY CONDITION/WEATHER
TMP    - TEMPERATURE IN FAHRENHEIT
DP     - DEW POINT IN FAHRENHEIT
RH     - RELATIVE HUMIDITY IN PERCENT
WIND   - DIRECTION AND SPEED IN MILES PER HOUR (MPH)
VRB    - VARIABLE WIND DIRECTION
PRES   - MEAN SEA LEVEL PRESSURE IN INCHES OF MERCURY
         F - FALLING PRESSURE   R - RISING PRESSURE
         S - STEADY PRESSURE
VSB    - VISIBILITY IN MILES
HX     - HEAT INDEX IN FAHRENHEIT
WCI    - WIND CHILL INDEX IN FAHRENHEIT
TC     - TEMPERATURE IN CELSIUS WHICH IS ALSO KNOWN AS
         TEMPERATURE IN CENTIGRADE
AFB    - AIR FORCE BASE
         LUKE AFB IS LUKE AIR FORCE BASE
         DAVIS-MONTHAN IS DAVIS-MONTHAN AIR FORCE BASE
NAS    - NAVAL AIR STATION
         EL CENTRO NAS IS EL CENTRO NAVAL AIR STATION
N/A    - NOT AVAILABLE



USA.gov is the U.S. government's official web portal to all federal, state and local government web resources and services.